Lid_Strength_Index
5 8 6 7 11 13 15 14 11 10 10 9 9 9 9 11 10 11 9 7 6 6 5 3 1 -0 -0 -0 1 2 2 2 2 1 -0 -1 -1 -1 -1 -1 -1 -2 -2 -1 -1 -1 -1 -1 -1
8 8 8 11 15 17 17 14 13 10 10 10 11 10 10 11 11 11 9 8 7 6 5 3 1 1 0 0 0 0 1 2 2 2 2 1 -0 -0 -1 -1 -1 -1 -2 -2 -1 -1 -1 -1 -1
9 9 9 13 16 18 17 14 12 12 12 11 12 12 11 12 11 11 9 8 8 8 7 4 3 2 2 1 1 1 0 0 1 2 3 3 2 1 -0 -1 -1 -1 -1 -1 -2 -2 -1 -1 -1
10 10 13 14 16 15 14 13 12 13 12 12 12 12 12 11 11 10 9 9 9 9 9 6 4 3 3 3 2 2 2 1 1 0 1 3 3 3 1 0 -1 -1 -1 -1 -1 -2 -1 -1 -1
13 14 16 17 17 15 15 13 13 13 13 13 13 13 13 11 10 10 9 9 10 10 9 9 6 5 5 4 3 3 2 2 2 1 1 1 4 4 4 2 1 -0 -1 -1 -1 -1 -1 -1 -1
14 16 18 19 18 16 15 14 14 14 14 13 13 14 13 11 11 10 10 10 10 10 10 10 8 7 6 5 5 4 4 3 3 3 2 2 2 4 5 5 3 2 0 -1 -1 -1 -1 -1 -1
15 17 19 19 19 17 15 14 15 14 14 14 13 14 13 12 11 11 11 11 10 11 11 11 11 10 9 8 7 6 5 5 5 5 4 4 4 3 5 5 6 4 2 1 -1 -1 -1 -1 -1
16 16 18 19 18 17 15 15 14 14 14 13 12 14 13 12 11 11 12 12 11 11 12 12 11 11 11 10 8 8 7 7 6 6 6 6 6 6 5 5 5 6 4 2 1 -0 -1 -1 -1
14 17 19 18 18 17 15 15 14 13 14 13 13 13 13 12 12 12 12 12 12 12 12 12 12 12 12 10 10 10 9 9 8 8 8 8 7 7 6 5 5 5 5 4 3 1 -0 0 1
16 18 18 17 17 17 16 16 15 15 15 14 14 13 13 12 13 13 13 13 13 13 13 13 13 12 12 11 11 11 11 10 10 10 9 9 8 7 7 6 5 4 5 4 3 2 0 1 -0
16 18 17 15 15 15 16 16 15 16 16 14 14 14 14 14 13 13 13 13 13 13 13 13 13 13 12 12 11 12 11 11 10 10 10 9 9 8 8 7 6 5 4 4 3 3 1 -1 -1
17 16 16 14 14 15 16 16 16 16 14 14 14 13 14 14 14 14 14 14 14 14 14 14 13 13 13 13 12 12 12 11 11 11 10 10 9 9 9 8 8 6 5 4 3 2 4 2 -1
16 16 15 15 15 16 15 16 16 16 15 14 14 14 14 14 14 14 14 14 14 14 14 14 13 13 13 13 13 13 12 12 11 11 11 10 10 9 8 8 8 7 6 5 4 4 4 3 2
15 15 16 15 15 16 16 17 17 14 14 16 15 15 14 14 14 15 15 15 15 14 14 14 14 13 14 14 13 13 13 12 11 11 11 11 10 9 9 8 8 7 6 5 4 4 3 3 3
15 17 16 16 16 16 16 18 18 15 15 15 16 15 15 14 15 15 14 15 15 15 14 14 14 14 14 14 14 13 13 12 12 12 11 10 10 9 9 9 8 8 7 6 5 4 3 2 1
16 16 18 16 16 16 16 19 16 15 16 16 16 16 16 15 15 15 15 15 15 15 15 15 14 14 14 14 14 13 13 12 12 11 10 10 9 9 8 9 9 7 7 6 6 5 4 3 0
17 19 19 17 15 16 17 18 15 15 16 16 16 16 17 17 16 16 16 16 16 15 15 15 15 14 14 14 13 13 12 12 11 11 11 10 9 9 9 9 8 8 7 6 5 4 4 3 1
19 19 19 19 16 17 18 18 16 14 17 16 16 16 17 17 17 16 16 16 16 16 15 15 15 14 14 13 13 13 13 12 12 12 11 10 10 9 9 8 8 7 7 7 5 4 3 2 1
18 18 19 18 16 17 18 18 16 15 16 17 17 18 18 18 17 17 17 16 16 16 16 15 15 14 14 15 15 15 14 13 13 12 11 10 10 9 8 7 6 6 6 6 5 4 4 3 1
17 18 19 17 16 17 18 18 16 16 16 17 18 18 18 18 19 18 17 16 16 16 16 16 15 15 15 15 15 14 14 13 13 12 11 11 9 8 8 8 7 5 6 6 6 5 4 3 1
17 18 18 18 17 18 19 20 19 16 17 17 18 18 18 18 19 18 17 16 17 17 17 16 16 16 16 15 15 14 14 13 13 13 12 11 10 9 9 8 6 6 6 6 5 4 4 4 1
19 16 16 17 20 22 19 23 19 18 18 18 17 18 18 18 18 17 17 17 17 17 16 17 16 16 16 15 16 15 15 15 14 13 12 11 11 10 9 8 7 7 6 6 5 4 3 2 3
18 16 17 18 21 24 20 24 20 19 19 18 18 16 16 17 18 17 18 17 17 17 17 18 17 17 16 16 15 15 15 15 14 14 13 12 11 10 9 8 8 8 7 7 6 5 5 3 3
15 17 17 20 21 27 23 22 20 20 21 19 17 16 17 17 17 17 17 17 18 18 18 18 17 16 16 16 15 16 16 16 15 15 14 12 11 10 9 8 8 8 8 8 8 7 6 5 4
16 17 21 25 28 24 22 23 19 20 20 18 18 17 19 18 18 18 18 19 18 18 18 17 17 17 16 16 17 16 16 16 16 15 13 13 11 10 9 8 8 8 8 8 8 8 7 6 6
18 18 20 24 26 26 20 25 17 19 19 21 21 21 19 18 18 18 19 19 19 19 19 18 18 18 17 17 17 17 17 16 16 14 13 12 11 11 10 9 9 9 9 9 9 8 8 8 8
18 20 18 22 25 24 21 19 18 17 18 19 20 17 18 18 19 20 20 20 20 20 20 20 19 19 18 18 18 18 17 16 16 14 13 12 11 11 10 10 10 10 10 10 10 9 10 10 9
17 17 21 21 24 25 21 22 19 20 20 19 20 18 19 19 19 20 21 21 21 21 21 20 20 22 22 19 18 17 17 17 16 15 14 13 11 10 10 11 11 10 10 10 10 9 9 10 9
19 19 19 19 22 23 24 20 20 21 23 21 20 18 20 20 21 21 22 22 23 23 24 23 23 25 22 21 19 18 18 17 17 16 14 13 11 11 11 11 11 11 11 10 10 10 9 9 9
17 18 18 20 22 25 24 21 22 24 27 26 20 18 19 20 21 22 23 25 26 25 25 26 25 26 23 22 20 18 18 17 17 16 15 14 13 11 12 11 12 12 12 12 11 10 10 10 10